Location: Krakow
(50.0830°N, 19.9170°E)
Time: 19:20:03
(UTC+01:00)

SR - Pass Details

Date: 12 February 2023
Orbit: 582 x 867 km, 66.7° (Epoch: 20 March)

Event Time Altitude Azimuth Distance (km) Brightness Sun altitude
Rises 14:54:31 0° 279° (W) 3,053 ? 15.1°
Reaches altitude 10° 14:58:01 10° 305° (NW) 2,075 ? 14.7°
Maximum altitude 15:00:28 14° 337° (NNW) 1,782 ? 14.4°
Drops below altitude 10° 15:02:51 10° 9° (N) 2,001 ? 14.1°
Sets 15:06:07 0° 35° (NE) 2,866 ? 13.7°
